Location: Unspecified
(45.6669°N, 0.0000°E)
Time: 14:01:22
(UTC+00:00)

ISS - Pass Details

Date: 24 May 2019
Orbit: 408 x 418 km, 51.6° (Epoch: 25 June)

Event Time Altitude Azimuth Distance (km) Brightness Sun altitude
Rises 00:34:00 0° 297° (WNW) 2,367 0.3 -23.1°
Reaches altitude 10° 00:36:07 10° 295° (WNW) 1,503 -0.8 -23.1°
Enters shadow 00:36:33 13° 295° (WNW) 1,323 -1.1 -23.0°
